Weather in Palm Springs

United States     33°48′50″N   116°30′58″W
temp.,
°C
wind,
m/s
gust,
m/s
humid.,
%
clouds,
%
prec.,
mm/h
press.,
hPa
HPBL,
m
18 may, tue
tue1823:00+17w55601 0.0 1012163
02:00+16w555816 0.0 1011135
05:00+16w45535 0.0 1011107
08:00+22nw23320 0.0 1011277
11:00+27nne23210 0.0 10111270
14:00+31n12160 0.0 10081788
17:00+32wnw43150 0.0 10062128
20:00+25w45310 0.0 1007209
19 may, wed
wed1923:00+22wsw45350 0.0 1009115
02:00+20wsw44420 0.0 100897
05:00+19wsw44360 0.0 100883
08:00+23w232338 0.0 1008342
11:00+28n13140 0.0 10071437
14:00+31w541314 0.0 10051951
17:00+29w66190 0.0 10041210
20:00+21wsw563882 0.0 1006286
20 may, thu
thu2023:00+19wsw5540100 0.0 1007177
02:00+18wsw554282 0.0 1006141
05:00+17wsw44410 0.0 1006108
08:00+20w23300 0.0 1007432
11:00+25w24210 0.0 10061372
14:00+26w46160 0.0 10041503
17:00+24w56210 0.0 10031070
20:00+16w66510 0.0 1006370
21 may, fri
fri2123:00+13wsw56651 0.0 1008287
02:00+12wsw44580 0.0 1008164
05:00+11wsw44590 0.0 1010150
08:00+14w23400 0.0 1011661
11:00+19nnw13210 0.0 10112054
14:00+21w56170 0.0 10102615
17:00+20w76283 0.0 10102174
20:00+14wsw56310 0.0 1013598
22 may, sat
sat2223:00+12w44360 0.0 1014235
02:00+11wsw33370 0.0 1015140
05:00+10w33380 0.0 1015112
08:00+14wnw22250 0.0 1015524
11:00+19nw13150 0.0 10142453
14:00+22wnw35120 0.0 10123324
17:00+22w54160 0.0 10112374
20:00+15w55410 0.0 1013410